Flag for Netherlands Weather past 2 weeks in Ede, Netherlands

Now
28 °F

Passing clouds.


Feels Like: 16 °F
Forecast: 23 / 29 °F
Wind: 17 mph from Northeast

Location: Deelen

Current Time: Dec 28, 2014 at 12:33:56 AM

Latest Report: Dec 27, 2014 at 11:55 PM


Visibility: N/A

Pressure: 29.83 "Hg

Humidity: 80%

Dew point: 23 °F

Location of EdeLocation

Historic Weather in Ede — Graph

°F

Ede temperature yesterday

Maximum temperature yesterday: 37 °F (at 3:25 AM)
Minimum temperature yesterday: 28 °F (at 10:25 PM)
Average temperature yesterday: 33 °F

Past Weeks' High & Low Weather Summary

 TemperatureHumidityPressure
High54 °F (Dec 18, 1:55 PM)100% (Dec 13, 5:55 PM)30.39 "Hg (Dec 13, 5:55 PM)
Low27 °F (Dec 26, 7:55 AM)69% (Dec 27, 9:55 PM)29.47 "Hg (Dec 27, 9:25 AM)
Average43 °F90%29.94 "Hg
* Reported Dec 12 11:25 PM — Dec 27 11:25 PM, Ede, Weather by CustomWeather, © 2014

Note: Actual official high and low records may vary slightly from our data, if they occured in-between our weather recording intervals... More about our weather records

Advertising

Ede weather history for previous 24 hours

 ConditionsComfort  
Time TempWeatherWind HumidityBarometerVisibility
11:25 PM
Dec 27
28 °FPassing clouds.17 mph80%29.80 "HgN/A
10:55 PM28 °FPassing clouds.18 mph80%29.77 "HgN/A
10:25 PM28 °FPassing clouds.18 mph80%29.77 "HgN/A
9:55 PM30 °FPassing clouds.18 mph69%29.74 "HgN/A
9:25 PM30 °FPassing clouds.18 mph75%29.71 "HgN/A
8:55 PM30 °FMostly cloudy.18 mph75%29.71 "HgN/A
8:25 PM30 °FPartly cloudy.17 mph80%29.68 "HgN/A
7:55 PM30 °FPartly cloudy.18 mph80%29.65 "HgN/A
7:25 PM32 °FPartly cloudy.21 mph80%29.65 "HgN/A
6:55 PM32 °FPassing clouds.18 mph87%29.62 "HgN/A
6:25 PM32 °FPassing clouds.20 mph87%29.59 "HgN/A
5:55 PM32 °FMostly cloudy.16 mph93%29.59 "HgN/A
5:25 PM32 °FLight snow. Overcast.18 mph93%29.56 "Hg3 mi
4:55 PM32 °FLight snow. Mostly cloudy.16 mph93%29.56 "Hg3 mi
4:25 PM32 °FLight snow. Overcast.17 mph93%29.53 "Hg2 mi
3:55 PM32 °FLight snow. Partly sunny.16 mph100%29.53 "Hg2 mi
3:25 PM32 °FLight snow. More clouds than sun.17 mph93%29.50 "Hg2 mi
2:55 PM32 °FLight snow. Broken clouds.17 mph100%29.50 "Hg2 mi
2:25 PM32 °FLight snow. Broken clouds.15 mph100%29.50 "Hg3 mi
1:55 PM34 °FLight snow. Mostly cloudy.15 mph93%29.50 "Hg2 mi
1:25 PM34 °FLight snow. Partly sunny.17 mph93%29.47 "HgN/A
12:55 PM34 °FMostly cloudy.17 mph93%29.47 "HgN/A
12:25 PM34 °FLight snow. Broken clouds.18 mph93%29.47 "HgN/A
11:55 AM34 °FLight snow. Mostly cloudy.20 mph93%29.47 "Hg4 mi
11:25 AM34 °FLight snow. Partly sunny.21 mph93%29.47 "Hg3 mi
10:55 AM34 °FLight snow. Broken clouds.20 mph93%29.47 "Hg2 mi
10:25 AM34 °FLight snow. Partly sunny.20 mph93%29.47 "Hg1 mi
9:55 AM32 °FSnow. Mostly cloudy.17 mph100%29.47 "Hg1 mi
9:25 AM32 °FSnow. More clouds than sun.20 mph100%29.47 "Hg1 mi
8:55 AM32 °FSnow. Broken clouds.16 mph100%29.50 "Hg1 mi
8:25 AM32 °FSnow. Mostly cloudy.18 mph100%29.50 "Hg1 mi
7:55 AM32 °FSnow. Mostly cloudy.16 mph100%29.50 "Hg1 mi
7:25 AM32 °FSnow. Low clouds.18 mph100%29.50 "Hg1 mi
6:55 AM34 °FSnow. Mostly cloudy.21 mph93%29.53 "Hg0 mi
6:25 AM34 °FSnow showers. Mostly cloudy.21 mph93%29.56 "Hg1 mi
5:55 AM36 °FRain showers. Partly cloudy.20 mph87%29.59 "Hg2 mi
5:25 AM36 °FSprinkles. Passing clouds.20 mph87%29.62 "Hg4 mi
4:25 AM37 °FPassing clouds.20 mph81%29.68 "HgN/A
3:55 AM37 °FPartly cloudy.18 mph81%29.74 "HgN/A
3:25 AM37 °FPassing clouds.16 mph81%29.77 "HgN/A
2:55 AM36 °FPassing clouds.16 mph87%29.80 "HgN/A
2:25 AM36 °FPartly cloudy.13 mph87%29.83 "HgN/A
1:55 AM36 °FPartly cloudy.12 mph87%29.86 "HgN/A
1:25 AM36 °FPassing clouds.13 mph87%29.92 "HgN/A
12:55 AM36 °FFog.14 mph93%29.95 "Hg6 mi
12:25 AM36 °FFog.13 mph93%29.98 "Hg4 mi
Weather by CustomWeather, © 2014

See weather overviewHow to use our weather pages